Regional Weather Roundup
Issued by NWS

Home | Current Version | Previous Version | Text Only | Print | Product List | Glossary Off
Versions: 1 2 3 4 5 6 7 8 9 10 11 12 13 14 15 16 17 18 19 20 21 22 23 24 25 26 27 28 29 30 31 32 33 34 35 36 37 38 39 40 41 42 43 44 45 46 47 48 49 50

563
ASUS43 KBIS 150002
RWRND

NORTH DAKOTA REGIONAL WEATHER ROUNDUP
NATIONAL WEATHER SERVICE BISMARCK ND
600 PM CST SUN FEB 14 2016

NOTE: "FAIR" INDICATES FEW OR NO CLOUDS BELOW 12,000 FEET WITH NO
SIGNIFICANT WEATHER AND/OR OBSTRUCTIONS TO VISIBILITY.


NDZ001>003-009>011-017-150100-
NORTHWEST NORTH DAKOTA

CITY           SKY/WX    TMP DP  RH WIND       PRES   REMARKS
WILLISTON      CLEAR     36  29  75 CALM      29.71R
6HR MIN TEMP:  30; 6HR MAX TEMP:  40;

MINOT          CLEAR     34  25  69 SW8       29.67F
$$

NDZ018>021-031>035-040>046-150100-
SOUTHWEST NORTH DAKOTA

CITY           SKY/WX    TMP DP  RH WIND       PRES   REMARKS
BISMARCK       CLEAR     39  29  67 NW5       29.73R
6HR MIN TEMP:  39; 6HR MAX TEMP:  45;

DICKINSON      PTCLDY    35  30  82 W7        29.70S
GARRISON         N/A     33  28  81 NW6       29.70S
6HR MIN TEMP:  33; 6HR MAX TEMP:  38; 6HR PCP:  0.01;

HETTINGER ARPT MOCLDY    36  31  82 W10       29.75R
$$

NDZ004>008-012>016-024-026-027-054-150100-
NORTHEAST NORTH DAKOTA

CITY           SKY/WX    TMP DP  RH WIND       PRES   REMARKS
GRAND FORKS    CLOUDY    21  16  81 S9        29.73F WCI  11
GRND FRKS AFB  CLOUDY    23  19  83 SW2       29.72F
DEVILS LAKE    CLOUDY    26  24  92 NW10      29.70R WCI  16
$$

NDZ022-023-025-028>030-036>039-047>053-150100-
SOUTHEAST NORTH DAKOTA

CITY           SKY/WX    TMP DP  RH WIND       PRES   REMARKS
FARGO          CLOUDY    20  15  81 S10       29.76F WCI   9
6HR MIN TEMP:  16; 6HR MAX TEMP:  20; 6HR PCP: TRACE;

JAMESTOWN      CLOUDY    28  24  85 CALM      29.71R
$$





USA.gov is the U.S. government's official web portal to all federal, state and local government web resources and services.